DECAYED
Showing default

QSS, 41731 (Decayed)

Orbit data source: Space-Track

QSS, 41731 was a payload satellite owned by CAS (CN) in LEO that was launched on Mon, 15 Aug 2016 UTC via a CHANG ZHENG 2D launch vehicle from the Jiuquan Satellite Launch Center, China (JSC). Payload-class satellites include a variety of spacecraft equipped with specific instruments for various scientific and technological missions. These include communications satellites like Starlink; space stations such as the ISS; scientific satellites like the Hubble; Earth observation satellites from companies like Planet Labs, Umbra, and HawkEye 360; GPS; miniature CubeSats for education and research; and military/defense satellites.

Not visible in the next 10 days
Identifier
41731, 2016-051A
Orbit
Decayed
Country
Flag of CNCN / PRC
Related business
Manufacturer
SECM/USTC
Mission
Decayed Civil Technology
Bus & Motor
CAST-2000?, AOCS
Mass
640 kg wet, ~500 kg dry
Launch date (UTC)
2016-08-15 (10 years ago)
Launch vehicle
CHANG ZHENG 2D
Launch site
Jiuquan Satellite Launch Center, China (JSC)
Object type
Payload
Rocket body
Debris
Shape & HBR
Box + 2 Pan, 2.0 m
Radar Cross Section
5.141 m², Large (>1 m²)

Expand to show TLE details & history
Last TLE update: 5 months ago

TLE from 5 months ago
0 QSS
1 41731U 16051A   26025.83936072  .15182661  26016-5  24072-3 0  9990
2 41731  97.2882 320.5748 0008634 239.4939 120.5513 16.48001705527994
Epoch: 2026-01-25T20:08Z
TLE epoch observation values (Epoch: 2026-01-25T20:08:40.766Z)
Latitude
-0.00001°
Longitude
-106.73877°
Altitude
150.735 km
Speed
7.814 km/s
True Right ascension
21h 22m 17s
True Declination
0° 00' 00"
Sunlit
Object was in daylight at epoch
Visualization orbit readout
Latitude
Unknown
Longitude
Unknown
Altitude
Unknown
Speed
Unknown
Apparent Right ascension
Unknown
Apparent Declination
Unknown
Sunlit
N/A
Visualization observer readout
Local Sidereal Time
21:39:15
Azimuth
Unknown
Elevation
Unknown
Doppler factor
Unknown
Orbital elements
Apogee altitude
147.024 km
Perigee altitude
135.766 km
Semi-major axis
6,519.532 km
Eccentricity
0.00086
Inclination
97.2882°
RAAN
320.5748°
Arg. of periapsis
239.4939°
True anomaly
120.63646°
Mean anomaly
120.5513°
Eccentric anomaly
120.59388°
Mean motion
4.12305 °/min
Orbital period
87.31 mins
BSTAR
0.00024072
Loading maneuver chart data...
Computing Atmospheric mass density...
Loading historical data...
Loading historical data...
Loading historical data...
Loading historical data...
Loading historical data...
Loading historical data...
Loading historical data...
Other satellites on launch #51 in the year 2016 (2016-08-15 UTC)

Documentation

Showing up to 5 results
|